Location: Sobotiste
(48.7170°N, 17.4000°E)
Time: 06:17:50
(UTC+02:00)

CAS-6 - Pass Details

Date: 19 March 2026
Orbit: 601 x 618 km, 97.8° (Epoch: 15 April)

Event Time Altitude Azimuth Distance (km) Brightness Sun altitude
Exits shadow 21:41:47 20° 346° (NNW) 1,396 ? -33.4°
Drops below altitude 10° 21:43:11 10° 346° (NNW) 1,960 ? -33.5°
Sets 21:45:22 0° 347° (NNW) 2,870 ? -33.8°
